TimeEST,TemperatureF,Dew PointF,Humidity,Sea Level PressureIn,VisibilityMPH,Wind Direction,Wind SpeedMPH,Gust SpeedMPH,PrecipitationIn,Events,Conditions,WindDirDegrees,DateUTC
12:53 AM,43.0,24.1,47,30.19,10.0,West,10.4,-,N/A,,Clear,280,2013-01-10 05:53:00
1:53 AM,43.0,23.0,45,30.23,10.0,WNW,9.2,-,N/A,,Clear,300,2013-01-10 06:53:00
2:53 AM,41.0,21.9,47,30.25,10.0,WNW,9.2,-,N/A,,Clear,290,2013-01-10 07:53:00
3:53 AM,41.0,21.9,47,30.27,10.0,WNW,5.8,-,N/A,,Clear,300,2013-01-10 08:53:00
4:53 AM,39.0,21.9,50,30.30,10.0,NW,6.9,-,N/A,,Clear,310,2013-01-10 09:53:00
5:53 AM,37.0,21.9,54,30.34,10.0,West,6.9,-,N/A,,Clear,260,2013-01-10 10:53:00
7:53 AM,28.0,21.0,75,30.43,10.0,Calm,Calm,-,N/A,,Clear,0,2013-01-10 12:53:00
8:53 AM,30.0,21.9,72,30.45,10.0,West,5.8,-,N/A,,Clear,270,2013-01-10 13:53:00
9:53 AM,42.1,19.9,41,30.48,10.0,NW,8.1,-,N/A,,Clear,310,2013-01-10 14:53:00
10:53 AM,44.1,19.9,38,30.48,10.0,NW,10.4,-,N/A,,Clear,310,2013-01-10 15:53:00
11:53 AM,43.0,19.9,40,30.46,10.0,NW,9.2,-,N/A,,Clear,310,2013-01-10 16:53:00
12:53 PM,45.0,19.9,37,30.44,10.0,NNW,9.2,16.1,N/A,,Clear,330,2013-01-10 17:53:00
1:53 PM,45.0,19.9,37,30.44,10.0,NNW,8.1,-,N/A,,Clear,330,2013-01-10 18:53:00
2:53 PM,46.0,19.9,35,30.45,10.0,NNW,6.9,-,N/A,,Clear,340,2013-01-10 19:53:00
3:53 PM,45.0,21.0,39,30.47,10.0,NNE,8.1,-,N/A,,Clear,20,2013-01-10 20:53:00
4:53 PM,42.1,21.0,43,30.48,10.0,NNE,5.8,-,N/A,,Clear,20,2013-01-10 21:53:00
5:53 PM,37.0,21.9,54,30.50,10.0,North,3.5,-,N/A,,Clear,360,2013-01-10 22:53:00
6:53 PM,33.1,23.0,66,30.52,10.0,Calm,Calm,-,N/A,,Clear,0,2013-01-10 23:53:00
7:53 PM,30.9,21.9,69,30.53,10.0,Calm,Calm,-,N/A,,Clear,0,2013-01-11 00:53:00
8:53 PM,28.9,23.0,78,30.54,10.0,Calm,Calm,-,N/A,,Clear,0,2013-01-11 01:53:00
9:53 PM,27.0,21.0,78,30.54,10.0,NNE,3.5,-,N/A,,Clear,20,2013-01-11 02:53:00
11:53 PM,27.0,21.9,81,30.55,10.0,SSE,3.5,-,N/A,,Clear,150,2013-01-11 04:53:00